Regional Weather Roundup
Issued by NWS Little Rock, AR

Home | Current Version | Previous Version | Text Only | Print | Product List | Glossary Off
Versions: 1 2 3 4 5 6 7 8 9 10 11 12 13 14 15 16 17 18 19 20 21 22 23 24 25 26 27 28 29 30 31 32 33 34 35 36 37 38 39 40 41 42 43 44 45 46 47 48 49 50

000
ASUS44 KLZK 262205
RWRLZK

WEATHER ROUNDUP FOR ARKANSAS
NATIONAL WEATHER SERVICE LITTLE ROCK AR
500 PM CDT TUE MAY 26 2015

NOTE: "FAIR" INDICATES FEW OR NO CLOUDS BELOW 12,000 FEET WITH NO
SIGNIFICANT WEATHER AND/OR OBSTRUCTIONS TO VISIBILITY.

ARZ001-003-010-029-262300-
NORTHWEST ARKANSAS

CITY           SKY/WX    TMP DP  RH WIND       PRES   REMARKS
FAYETTEVILLE   SUNNY     78  63  59 S9        30.00F
FORT SMITH     SUNNY     82  61  48 CALM      29.97F
HARRISON       SUNNY     79  61  53 VRB3      30.01F
BENTONVILLE    SUNNY     79  61  53 S10       30.00F
ROGERS         SUNNY     79  59  50 S10       30.00F
SILOAM SPGS    SUNNY     79  61  53 S8        30.00F
HIGHFILL       SUNNY     78  62  57 S12       29.99F
SPRINGDALE     SUNNY     79  61  53 SW12      30.02F
$$

ARZ004-005-016-262300-
NORTH CENTRAL ARKANSAS

CITY           SKY/WX    TMP DP  RH WIND       PRES   REMARKS
BATESVILLE     MOSUNNY   81  63  54 S9        30.01F
FLIPPIN          N/A     81  61  50 S3        29.98S
MTN HOME       MOSUNNY   78  62  57 SW9       29.99F
$$

ARZ040-041-262300-
WEST CENTRAL ARKANSAS

CITY           SKY/WX    TMP DP  RH WIND       PRES   REMARKS
MENA           SUNNY     82  70  65 S5        30.02S HX  86
MOUNT IDA      SUNNY     80  65  59 VRB3      30.01R
$$

ARZ009-017-025-026-028-262300-
NORTHEAST ARKANSAS

CITY           SKY/WX    TMP DP  RH WIND       PRES   REMARKS
CORNING        FAIR      77  66  69 SW14      30.00S
JONESBORO      MOSUNNY   76  64  66 SW13G23   30.01F
NEWPORT        MOSUNNY   79  64  59 SW12      30.02F
WALNUT RIDGE   PTSUNNY   77  61  57 SW13      30.00F
BLYTHEVILLE    PTSUNNY   77  65  66 W14       30.02F
$$

ARZ022-023-033-042-044-262300-
CENTRAL ARKANSAS

CITY           SKY/WX    TMP DP  RH WIND       PRES   REMARKS
LITTLE ROCK    MOSUNNY   80  62  54 SW6       30.03F
N LITTLE ROCK  MOSUNNY   78  66  66 S6        30.03F
JACKSONVILLE   SUNNY     80  65  58 S7        30.02S
SEARCY         MOSUNNY   78  65  63 SW6       30.04F
HOT SPRINGS    SUNNY     81  64  56 S7        30.03S
RUSSELLVILLE   SUNNY     80  64  58 VRB3      30.00S
CLINTON        FAIR      81  64  57 S5        30.02S
$$

ARZ036-262300-
EAST ARKANSAS

CITY           SKY/WX    TMP DP  RH WIND       PRES   REMARKS
WEST MEMPHIS   MOSUNNY   79  67  66 SW8       30.01F
$$

ARZ050-053-066-070-073-262300-
SOUTHWEST ARKANSAS

CITY           SKY/WX    TMP DP  RH WIND       PRES   REMARKS
ARKADELPHIA    MOCLDY    78  71  79 S10       30.05S
CAMDEN         CLOUDY    81  66  61 CALM      30.05F
TEXARKANA      MOSUNNY   79  70  74 E6        30.03F
EL DORADO      MOSUNNY   82  69  64 N7        30.05F HX  85
$$

ARZ056-057-069-262300-
SOUTHEAST ARKANSAS

CITY           SKY/WX    TMP DP  RH WIND       PRES   REMARKS
PINE BLUFF     MOSUNNY   79  65  62 SW12      30.05S
STUTTGART      PTSUNNY   81  64  57 SW12      30.04F
MONTICELLO     MOSUNNY   82  70  66 SW9       30.05S HX  86

$$





USA.gov is the U.S. government's official web portal to all federal, state and local government web resources and services.